Tracking 28790 objects as of 19-Apr-2024
HD Live streaming from Space Station
objects crossing your sky now

COSMOS 2251 DEB

Track COSMOS 2251 DEB now!
10-day predictions


NORAD ID: 33766
Int'l Code: 1993-036P
Perigee: 746.7 km
Apogee: 840.5 km
Inclination: 74.2 °
Period: 100.6 minutes
Semi major axis: 7164 km
RCS: 0.3164 m2 (medium)
Launch date: June 16, 1993
Source: Commonwealth of Independent States (former USSR) (CIS)
Launch site: PLESETSK MISSILE AND SPACE COMPLEX (PKMTR)

Note: This is SATELLITE DEBRIS
Your satellite tracking list
Your tracking list is empty




NASA's NSSDC Master Catalog

Two Line Element Set (TLE):
1 33766U 93036P   24109.54887910  .00002948  00000-0  10908-2 0  9997
2 33766  74.1875 147.6644 0065468 163.2207 197.1132 14.31575861791025
Source of the keplerian elements: AFSPC